User: anonymous   Login
Location: Unspecified
(0.0000°N, 0.0000°E)
Time: 02:05:49
(UTC+00:00)
Language:

AAUSAT3 - Orbit

View from above orbital plane
View from above orbital plane
View from above satellite
View from above satellite

Ground track
Ground track

The orbit data is extracted from the following two-line orbital elements,

1 39087U 13009B   24107.32271505  .00001794  00000-0  61219-3 0  9992
2 39087  98.3731 299.4441 0013101  70.9519 289.3086 14.37533168583294
Epoch (UTC): 16 April 2024 07:44:42
Eccentricity: 0.0013101
inclination: 98.3731°
perigee height: 757 km
apogee height: 776 km
right ascension of ascending node: 299.4441°
argument of perigee: 70.9519°
revolutions per day: 14.37533168
mean anomaly at epoch: 289.3086°
orbit number at epoch: 58329

The dashed part of the orbit path shows where the satellite is in the earth's shadow,  

DLR